sat.trackr.live / text

‹ back to catalog

STARLINK-34689

NORAD 64949 · 2025-158T

PAYLOAD ACTIVE UNKNOWN

§ Identity

Operator
Country
US
Launch date
2025-07-27
Launch site
AFWTR
Launch vehicle
Mass (kg)
RCS (m²)

Purposes: comms

External: N2YO · Heavens-Above · Gunter

§ Orbital elements

Epoch: 2026-09-20T13:12:47.335104Z

Period
93.90 min
Inclination
97.2875°
Eccentricity
0.0001972
Mean motion
15.33470895 rev/d
Perigee alt
464.1 km
Apogee alt
466.8 km
Semi-major
6,843.6 km
B*
4.5449e-4
RAAN
121.8532°
Arg perigee
101.7404°
Mean anomaly
258.4060°
Rev number
6,471

§ Raw data

STARLINK-346891 64949U 25158T   26263.55054786  .00014639  00000+0  45449-3 0  99932 64949  97.2875 121.8532 0001972 101.7404 258.4060 15.33470895 64718

JSON: /api/v1/satellites/64949 · /tle

For live sub-satellite position, see the globe view (requires WebGL).

§ Visibility from observer

Set your observer location to see the next 7 days of passes ≥ 10°. The values pass through the URL so the page stays shareable.

No JS? Fill the form by hand. The geolocation button needs JavaScript.